Regional Weather Roundup
Issued by NWS Columbia, SC

Home | Current Version | Previous Version | Text Only | Print | Product List | Glossary On
Versions: 1 2 3 4 5 6 7 8 9 10 11 12 13 14 15 16 17 18 19 20 21 22 23 24 25 26 27 28 29 30 31 32 33 34 35 36 37 38 39 40 41 42 43 44 45 46 47 48 49 50
248
ASUS42 KCAE 210610
RWRCAE
REGIONAL WEATHER ROUNDUP
NATIONAL WEATHER SERVICE COLUMBIA SC
100 AM EST SAT JAN 21 2017

NOTE: "FAIR" INDICATES FEW OR NO CLOUDS BELOW 12,000 FEET WITH NO
SIGNIFICANT WEATHER AND/OR OBSTRUCTIONS TO VISIBILITY.

NOT ALL STATIONS ARE QUALITY CONTROLLED BY THE NATIONAL
WEATHER SERVICE. USE DATA WITH CAUTION...ESPECIALLY
DEWPOINT OBSERVATIONS.

SCZ001>056-GAZ040-063>065-077-210700-
...UPSTATE SOUTH CAROLINA...

CITY           SKY/WX    TMP DP  RH WIND       PRES   REMARKS
ANDERSON       CLEAR     55  52  89 CALM      29.87F
6HR MIN TEMP:  52; 6HR MAX TEMP:  62;

LIBERTY        PTCLDY    51  50  96 CALM      29.88F
6HR MIN TEMP:  49; 6HR MAX TEMP:  62;

SPARTANBURG    FOG       54  52  94 NE5       29.89F VSB 1/4
CLEMSON        CLEAR     55  51  86 CALM      29.89S
6HR MIN TEMP:  54; 6HR MAX TEMP:  69;

GREENVILLE     FOG       56  54  93 NE5       29.90F VSB 1/2
6HR MIN TEMP:  56; 6HR MAX TEMP:  67;

GREENWOOD      CLEAR     58  54  86 SW5       29.89F
6HR MIN TEMP:  57; 6HR MAX TEMP:  65;

GREER          FOG       53  52  96 NE5       29.88F VSB 1/4
6HR MIN TEMP:  53; 6HR MAX TEMP:  64;

ROCK HILL      FOG       54  53  97 CALM      29.90S VSB 1/4
6HR MIN TEMP:  49; 6HR MAX TEMP:  56;

CHESTER        FOG       54  54 100 N3        29.90S VSB 1
LAURENS        PTCLDY    52  52 100 CALM      29.88F


...CENTRAL SOUTH CAROLINA...

CITY           SKY/WX    TMP DP  RH WIND       PRES   REMARKS
COLUMBIA APT   CLEAR     61  56  83 W3        29.88F
6HR MIN TEMP:  58; 6HR MAX TEMP:  67;

COLUMBIA OWENS CLEAR     56  53  90 CALM      29.89F
6HR MIN TEMP:  56; 6HR MAX TEMP:  66;

MCENTIRE ANGB  CLEAR     53  53 100 CALM      29.89S
6HR MIN TEMP:  53; 6HR MAX TEMP:  66;

ORANGEBURG     MOCLDY    59  59 100 CALM      29.89F
6HR MIN TEMP:  58; 6HR MAX TEMP:  66;

SUMTER SHAW    CLEAR     57  57 100 S3        29.87S FOG
6HR MIN TEMP:  56; 6HR MAX TEMP:  63;

NEWBERRY       PTCLDY    54  54 100 CALM      29.91F
AIKEN          FAIR      54  54 100 CALM      29.92F FOG
BARNWELL       FAIR      61  61 100 CALM      29.89F
MANNING        FAIR      55  54  94 CALM      29.90S
CAMDEN         FAIR      59  57  94 CALM      29.89S
LANCASTER      FOG       52  52 100 CALM      29.89S VSB 1/2
WINNSBORO      PTCLDY    59  55  88 SW5       29.88F


...EASTERN AND COASTAL SOUTH CAROLINA...

CITY           SKY/WX    TMP DP  RH WIND       PRES   REMARKS
MYRTLE BEACH   PTCLDY    63  55  77 SW5       29.92S
6HR MIN TEMP:  55; 6HR MAX TEMP:  64;

N MYRTLE BCH   PTCLDY    54  54 100 S3        29.90S
6HR MIN TEMP:  53; 6HR MAX TEMP:  59;

CONWAY         FAIR      57  57 100 SW3       29.90S
MARION         FAIR      54  52  94 S3        29.89F
HARTSVILLE     FAIR      54  54 100 CALM      29.88S
FLORENCE       CLEAR     59  58  96 SW7       29.89F
6HR MIN TEMP:  59; 6HR MAX TEMP:  64;

DARLINGTON     CLEAR     53  52  96 CALM      29.89S FOG
6HR MIN TEMP:  52; 6HR MAX TEMP:  60;

CHARLESTON APT CLOUDY    63  61  93 SW8       29.90F
6HR MIN TEMP:  59; 6HR MAX TEMP:  64;

MOUNT PLEASANT MOCLDY    64  63  94 S8        29.90F
WALTERBORO     CLOUDY    63  61  94 S6        29.91F
BEAUFORT       CLOUDY    65  63  93 E3        29.90F
6HR MIN TEMP:  62; 6HR MAX TEMP:  67; 6HR PCP: TRACE;



...EASTERN GEORGIA...

CITY           SKY/WX    TMP DP  RH WIND       PRES   REMARKS
AUGUSTA BUSH F CLOUDY    61  56  83 CALM      29.88F
6HR MIN TEMP:  58; 6HR MAX TEMP:  69;

AUGUSTA DANIEL PTCLDY    65  58  78 SE3       29.89F
6HR MIN TEMP:  64; 6HR MAX TEMP:  71;

THOMSON        PTCLDY    58  58 100 CALM      29.92F
6HR MIN TEMP:  57; 6HR MAX TEMP:  69;

WASHINGTON     FAIR      61  61 100 CALM      29.88S
CLAXTON        FAIR     N/A N/A N/A CALM      29.90S HAZE
SYLVANIA       CLOUDY   N/A N/A N/A CALM      29.89F
STATESBORO     CLOUDY    65  32  29 CALM      29.90S HAZE
6HR MIN TEMP:  58; 6HR MAX TEMP:  65;

SAVANNAH       CLOUDY    65  62  90 S7        29.90F
6HR MIN TEMP:  63; 6HR MAX TEMP:  67; 6HR PCP: TRACE;



...SOUTHERN NORTH CAROLINA...

CITY           SKY/WX    TMP DP  RH WIND       PRES   REMARKS
CHARLOTTE      FOG       53  52  96 CALM      29.91S VSB 1/4
6HR MIN TEMP:  52; 6HR MAX TEMP:  58;

MONROE         FOG       53  51  93 NE5       29.89F VSB 1/4
6HR MIN TEMP:  53; 6HR MAX TEMP:  59;

ROCKINGHAM     PTCLDY    55  55 100 E3        29.89F FOG
RUTHERFORDTON  CLOUDY    52  52 100 CALM      29.91S FOG
ASHEVILLE      MOCLDY    48  45  89 CALM      29.90F
6HR MIN TEMP:  47; 6HR MAX TEMP:  58;


$$




USA.gov is the U.S. government's official web portal to all federal, state and local government web resources and services.